Weather in Santa Cruz de Barahona

Dominican Republic     18°12′26″N   71°06′00″W
temp.,
°C
wind,
m/s
gust,
m/s
humid.,
%
clouds,
%
prec.,
mm/h
press.,
hPa
HPBL,
m
28 july, wed
wed2823:00+26sw238110 0.0 1016169
02:00+25nnw118048 0.0 1015113
05:00+25nw118132 0.0 1015147
08:00+26nw217537 0.2 1016242
11:00+28sse33657 0.0 1016646
14:00+28se67685 0.1 1015686
17:00+27sse687322 0.4 1013753
20:00+26se710827 2.8 1014719
29 july, thu
thu2923:00+26ese810785 1.3 1016692
02:00+25ese57795 3.4 1015458
05:00+25ese23784 0.5 1014357
08:00+26se23755 0.8 1016515
11:00+26se67774 0.9 1017703
14:00+27se68771 2.4 1016639
17:00+27se67773 0.6 1015705
20:00+26se57823 0.8 1016536
30 july, fri
fri3023:00+26ese46846 2.5 1018350
02:00+25ese24811 2.9 1016373
05:00+25sse128029 0.9 1016260
08:00+26se237688 1.4 1018431
11:00+27se457342 0.1 1018591
14:00+27se577541 0.1 1017622
17:00+27se587766 0.1 1016601
20:00+26se588414 1.6 1018494
31 july, sat
sat3123:00+26se5785100 1.5 1018509
02:00+26se348484 2.1 1017404
05:00+25ssw1285100 0.4 1017240
08:00+26sw118294 0.6 1018316
11:00+28sse4471100 0.0 1018607
14:00+28se6873100 0.5 1017621
17:00+27sse6980100 0.9 1016590
20:00+26se5984100 2.9 1017510
1 august, sun
sun123:00+27ese7982100 1.1 1019636
02:00+26ese578766 1.8 1017377
05:00+26ese2483100 0.7 1017315
08:00+26ese2479100 1.1 1018390
11:00+28se567499 0.3 1019663
14:00+28se6871100 0.4 1018626
17:00+28sse5772100 0.0 1016570
20:00+27se3582100 0.1 1018387